Weather History for Cincinnati, OH

Change the Weather History Date:

Friday, August 9, 2013

  Actual Average Record
Temperature  
Mean Temperature 76 °F -  
Max Temperature 84 °F 85 °F 100 °F (2007)
Min Temperature 69 °F 66 °F 52 °F (1989)
Cooling Degree Days 10    
Growing Degree Days 26 (Base 50)    
Moisture  
Dew Point 71 °F    
Average Humidity 88    
Maximum Humidity 100    
Minimum Humidity 67    
Precipitation  
Precipitation 0.59 in - - ()
Sea Level Pressure  
Sea Level Pressure 29.97 in    
Wind  
Wind Speed 5 mph (West)    
Max Wind Speed 14 mph    
Max Gust Speed 18 mph    
Visibility 8 miles    
Events Rain , Thunderstorm    
Averages and records for this station are not official NWS values.
T = Trace of Precipitation, MM = Missing Value Source: NWS Daily Summary

Daily Weather History Graph

Daily Weather History Graph

Search for Another Location

Airport:

Trip Planner

Search our weather history database for the weather conditions in past years. The results will help you decide how hot, cold, wet, or windy it might be!

Date:

Astronomy

Aug. 09, 2013 Rise Set
Actual Time 6:45 AM EDT 8:40 PM EDT
Civil Twilight 6:16 AM EDT 9:08 PM EDT
Nautical Twilight 5:41 AM EDT 9:44 PM EDT
Astronomical Twilight 5:03 AM EDT 10:22 PM EDT
Moon 9:29 AM EDT (8/9) 9:51 PM EDT (8/9)
Length of Visible Light 14h 52m
Length of Day
13h 54m
Waxing Crescent, 7% of the Moon is Illuminated
Aug 9
Waxing Crescent
Aug 14
First Quarter
Aug 20
Full
Aug 28
Last Quarter
Sep 5
New

Hourly Weather History & Observations

Time (EDT) Temp. Heat Index Dew Point Humidity Pressure Visibility Wind Dir Wind Speed Gust Speed Precip Events Conditions
12:02 AM 73.4 °F - 71.6 °F 94% 29.95 in 2.0 mi West 13.8 mph - 0.11 in Rain , Thunderstorm Heavy Thunderstorms and Rain
12:09 AM 71.6 °F - 71.6 °F 100% 29.96 in 1.2 mi Variable 3.5 mph 18.4 mph 0.23 in Rain , Thunderstorm Heavy Rain
12:22 AM 71.6 °F - 71.6 °F 100% 29.96 in 0.8 mi Calm Calm - 0.51 in Rain , Thunderstorm Heavy Rain
12:26 AM 71.6 °F - - N/A% 29.96 in 1.0 mi North 3.5 mph - 0.52 in Rain Heavy Rain
12:29 AM 71.6 °F - - N/A% 29.96 in 3.0 mi North 3.5 mph - 0.53 in Rain Heavy Rain
12:32 AM 71.6 °F - - N/A% 29.96 in 4.0 mi ENE 4.6 mph - 0.54 in Rain , Thunderstorm Heavy Rain
12:53 AM 71.1 °F - - N/A% 29.95 in 5.0 mi Calm Calm - 0.56 in Rain Rain
1:53 AM 70.0 °F - - N/A% 29.92 in 10.0 mi Calm Calm - 0.03 in Rain Light Rain
2:53 AM 69.1 °F - - N/A% 29.92 in 10.0 mi SSW 5.8 mph - 0.00 in Rain Light Rain
3:31 AM 69.8 °F - - N/A% 29.93 in 9.0 mi Calm Calm - 0.00 in Rain Light Rain
3:41 AM 69.8 °F - - N/A% 29.93 in 10.0 mi Calm Calm - 0.00 in Rain Light Rain
3:53 AM 69.1 °F - - N/A% 29.92 in 10.0 mi SSW 3.5 mph - 0.00 in   Overcast
4:53 AM 70.0 °F - - N/A% 29.92 in 10.0 mi Calm Calm - 0.00 in   Overcast
5:53 AM 70.0 °F - 70.0 °F 100% 29.92 in 9.0 mi Calm Calm - N/A   Overcast
6:53 AM 71.1 °F - 71.1 °F 100% 29.94 in 10.0 mi Calm Calm - N/A   Overcast
7:53 AM 71.1 °F - 71.1 °F 100% 29.96 in 6.0 mi South 4.6 mph - N/A   Overcast
8:51 AM 73.4 °F - 71.6 °F 94% 29.98 in 7.0 mi South 4.6 mph - 0.00 in Rain Light Rain
8:52 AM 73.0 °F - 72.0 °F 96% 29.97 in 7.0 mi South 4.6 mph - 0.00 in Rain Light Rain
9:01 AM 73.4 °F - 71.6 °F 94% 29.98 in 7.0 mi SSW 4.6 mph - 0.00 in Rain Light Rain
9:41 AM 73.4 °F - 73.4 °F 100% 29.99 in 8.0 mi South 5.8 mph - 0.00 in   Mostly Cloudy
9:53 AM 73.9 °F - 72.0 °F 93% 29.97 in 9.0 mi Calm Calm - 0.00 in   Overcast
10:18 AM 75.2 °F - 71.6 °F 89% 29.99 in 9.0 mi SW 4.6 mph - N/A   Mostly Cloudy
10:53 AM 75.9 °F - 72.0 °F 87% 29.96 in 10.0 mi WSW 5.8 mph - N/A   Overcast
11:28 AM 77.0 °F - 71.6 °F 83% 29.99 in 9.0 mi West 8.1 mph - N/A   Overcast
11:53 AM 78.1 °F - 73.0 °F 84% 29.97 in 9.0 mi West 4.6 mph - N/A   Overcast
12:53 PM 77.0 °F - 72.0 °F 84% 29.98 in 7.0 mi West 4.6 mph - N/A   Overcast
1:08 PM 78.8 °F - 71.6 °F 78% 29.99 in 7.0 mi West 5.8 mph - N/A   Mostly Cloudy
1:53 PM 81.0 °F 85.2 °F 72.0 °F 74% 29.97 in 9.0 mi West 6.9 mph - N/A   Mostly Cloudy
2:00 PM 82.4 °F 87.2 °F 71.6 °F 70% 29.98 in 9.0 mi Calm Calm - N/A   Partly Cloudy
2:53 PM 79.0 °F - 72.0 °F 79% 29.97 in 10.0 mi NNW 10.4 mph - N/A   Mostly Cloudy
3:53 PM 81.0 °F 85.2 °F 72.0 °F 74% 29.96 in 10.0 mi NNE 8.1 mph - N/A   Mostly Cloudy
4:53 PM 81.0 °F 84.4 °F 70.0 °F 69% 29.97 in 10.0 mi NNW 8.1 mph - N/A   Mostly Cloudy
5:53 PM 82.0 °F 86.3 °F 71.1 °F 69% 29.96 in 10.0 mi NNE 9.2 mph - N/A   Scattered Clouds
6:53 PM 82.0 °F 85.9 °F 70.0 °F 67% 29.97 in 10.0 mi NNE 6.9 mph - N/A   Scattered Clouds
7:53 PM 77.0 °F - 70.0 °F 79% 29.98 in 10.0 mi Calm Calm - N/A   Scattered Clouds
8:53 PM 73.9 °F - 71.1 °F 91% 29.99 in 10.0 mi Calm Calm - N/A   Clear
9:53 PM 72.0 °F - 71.1 °F 97% 30.02 in 10.0 mi Calm Calm - N/A   Clear
10:53 PM 72.0 °F - 71.1 °F 97% 30.03 in 7.0 mi Calm Calm - N/A   Clear
11:53 PM 71.1 °F - 71.1 °F 100% 30.04 in 6.0 mi Calm Calm - N/A   Clear